Powrót do katalogu

DELTA 1 DEB

AktywnyPO
NORAD 21448·DEBRIS·🇺🇸 United States

Wystrzelony Jun 12, 1975 z Vandenberg Space Force Base

Loading…

Następne Przeloty (najbliższe 24 godziny)

TLE

ŚwieżeSource: Space-Track

Epoka: Sep 14, 2026, 14:24 UTC

1 21448U 75052EG  26257.60062726 -.00000015  00000-0  62565-4 0  9994
2 21448  99.6477 303.3000 0129112 317.6678 209.8596 13.18254381701313

Śledź DELTA 1 DEB w czasie rzeczywistym z AllMySat

Download on the App Store